Regional Weather Roundup
Issued by NWS Wakefield, VA

Home | Current Version | Previous Version | Graphics & Text | Print | Product List | Glossary On
Versions: 1 2 3 4 5 6 7 8 9 10 11 12 13 14 15 16 17 18 19 20 21 22 23 24 25 26 27
000
ASUS41 KAKQ 291215
RWRAKQ

REGIONAL WEATHER ROUNDUP
NATIONAL WEATHER SERVICE WAKEFIELD VA
800 AM EDT SUN MAY 29 2016

Note: "fair" indicates few or no clouds below 12,000 feet with no
significant weather and/or obstructions to visibility. * = Denotes
station may not report precipitation (e.g., rain,snow,etc.),
thunder or fog.

VAZ042-051-052>054-056-291300-
NORTHERN VIRGINIA

CITY           SKY/WX    TMP DP  RH WIND       PRES   REMARKS
WASH NATIONAL  PTSUNNY   70  64  81 S6        30.16S
DULLES         PTSUNNY   70  64  81 SW5       30.15S
FORT BELVOIR   FAIR      68  65  90 SE3       30.15S
QUANTICO       FAIR      69  64  84 S3        30.16S
FREDERICKSBRG* FAIR      67  66  99 CALM      30.14S
STAFFORD*      FAIR      66  62  87 CALM      30.19S
WARRENTON      FAIR      69  61  75 CALM      30.15S
CULPEPER*      FAIR      69  65  89 CALM      30.16S
MANASSAS*      SUNNY     66  66 100 CALM      30.15S
LEESBURG*      FAIR      70  66  88 CALM      30.16S
WINCHESTER     FAIR      68  63  83 CALM      30.15R
FRONT ROYAL*   FAIR      64  61  88 CALM      30.14S
LURAY*         FAIR      64  64 100 CALM      30.16S
$$

VAZ048-049-060>072-079>083-291300-
CENTRAL AND SOUTH CENTRAL VIRGINIA

CITY           SKY/WX    TMP DP  RH WIND       PRES   REMARKS
RICHMOND       PTSUNNY   69  66  90 CALM      30.14S
CHESTERFIELD*  PTSUNNY   68  55  64 CALM      30.16R
PETERSBURG*    FOG       68  68 100 CALM      30.15S VSB 1
HANOVER        FAIR      70  64  81 CALM      30.16S
TAPPAHANNOCK*  FAIR      69  69  97 CALM      30.16R
QUINTON*       FAIR      68  66  93 CALM      30.14S
CHARLOTTSVILLE FAIR      67  62  84 S3        30.15S
GORDONSVILLE*  FAIR      69  64  86 CALM      30.15S
ORANGE*        FAIR      70  68  94 CALM      30.16F
LOUISA*        FAIR      73  68  83 CALM      30.14S
BUMPASS*       FAIR      68  65  88 CALM      30.15S
FARMVILLE*     FAIR      67  67  97 CALM      30.14S
CREWE*         FAIR      68  68 100 CALM      30.15S
FORT PICKETT*  NOT AVBL
CHASE CITY*    CLOUDY    68  66  94 CALM      30.14S
CLARKSVILLE*   CLOUDY    68  68 100 CALM      30.13S
SOUTH HILL*    CLOUDY    67  66  98 CALM      30.19S
LAWRENCEVILLE* CLOUDY    67  67  99 CALM      30.13S
EMPORIA*         N/A     66  66 100 CALM      30.14F
$$

VAZ088>098-291300-
SOUTHEAST VIRGINIA

CITY           SKY/WX    TMP DP  RH WIND       PRES   REMARKS
NORFOLK        CLOUDY    72  70  93 SE3       30.13S
VIRGINIA BEACH PTSUNNY   75  69  81 E6        30.12F
NORFOLK NAVAL  PTSUNNY   73  71  93 E3        30.14S
WEST POINT*    CLOUDY    69  68  98 CALM      30.16R VSB 1/4
SALUDA*        FAIR      73  71  95 CALM      30.14S
NEWPORT NEWS   PTSUNNY   72  71  97 E3        30.14S
LANGLEY AFB    CLOUDY    73  71  95 E5        30.13S FOG
FORT EUSTIS    FAIR      74  66  75 CALM      30.12S
WILLIAMSBURG*  FAIR      72  72 100 CALM      30.15S
HR EXEC AP*    CLOUDY    72  72 100 E6        30.14F
FRANKLIN*      CLOUDY    69  69  98 E3        30.14S
US460-WAKEFLD  CLOUDY    68  67  96 CALM      30.14S
$$

VAZ020-022-025-037-045-291300-
WEST CENTRAL AND SOUTHWEST VIRGINIA

CITY           SKY/WX    TMP DP  RH WIND       PRES   REMARKS
STAUNTON*      FAIR      63  61  93 CALM      30.19S
WAYNESBORO*    FAIR      67  60  80 CALM      30.18S
HOT SPRINGS VA PTSUNNY   64  56  77 W7        30.26S
LYNCHBURG      FAIR      67  63  87 CALM      30.18R
DANVILLE       LGT RAIN  68  64  87 CALM      30.15R
SOUTH BOSTON*  PTSUNNY   68  66  94 N3        30.14S
MARTINSVILLE   DRIZZLE   62  62  99 CALM      30.20R
ROANOKE        LGT RAIN  66  63  90 CALM      30.20R
BLACKSBURG     DRIZZLE   63  61  94 CALM      30.23F
DUBLIN*        CLOUDY    64  63  97 CALM      30.22F
MARION*        LGT RAIN  62  60  94 CALM      30.25S
HILLSVILLE*    CLOUDY    62  60  93 CALM      30.22R
RICHLANDS*     RAIN      61  61 100 CALM      30.23S
WISE*          FAIR      66  54  63 CALM      30.23S
ABINGDON*      LGT RAIN  65  60  84 CALM      30.20S
$$

MDZ021>025-VAZ099-100-291300-
SOUTHERN MARYLAND AND THE DELMARVA PENINSULA

CITY           SKY/WX    TMP DP  RH WIND       PRES   REMARKS
PATUXENT RIVER PTSUNNY   71  66  84 CALM      30.15S
BAY BRIDGE APT MOSUNNY   70  66  88 CALM      30.16S
LEONARDTOWN    MOSUNNY   68  64  88 CALM      30.16F
DOVER          MOSUNNY   69  69 100 SE3       30.16R
GEORGETOWN     CLOUDY    69  66  90 CALM      30.17S
EASTON         NOT AVBL
CAMBRIDGE        N/A     66  64  94 CALM      30.15S
SALISBURY      PTSUNNY   69  68  96 CALM      30.16S FOG
OCEAN CITY     FOG       67  66  97 CALM      30.16S VSB 1/4
WALLOPS ISLAND CLOUDY    72  70  93 SE3       30.16S
ACCOMACK*      PTSUNNY   73  68  83 SE5       30.15S
$$

NCZ012>017-030>032-291300-
NORTH CENTRAL AND EASTERN NORTH CAROLINA

CITY           SKY/WX    TMP DP  RH WIND       PRES   REMARKS
ROANOKE RAPIDS PTSUNNY   68  68 100 CALM      30.12S
RALEIGH        LGT RAIN  71  69  93 NE6       30.10S
ELIZABETH CITY SUNNY     75  72  90 E6        30.12S
AHOSKIE*       CLOUDY    67  67  98 N3        30.12S
EDENTON*       NOT AVBL
CURRITUCK*     MOSUNNY   75  73  95 E3        30.13S
KILL DEVIL HLS PTSUNNY   74  72  93 E5        30.11S
MANTEO         NOT AVBL
CAPE HATTERAS  PTSUNNY   78  73  84 SE13      30.10S
TARBORO*       CLOUDY    72  71  96 NE5       30.11S
GOLDSBORO      CLOUDY    73  73 100 NE8       30.06S
WASHINGTON     RAIN      71  71  99 NE6       30.09S
GREENVILLE     CLOUDY    72  72 100 E5        30.11R
NEW BERN       LGT RAIN  73  70  90 CALM      30.09R
WILMINGTON     CLOUDY    74  73  97 E6        30.03S
$$

VAZ048-291300-
ELSEWHERE

CITY           SKY/WX    TMP DP  RH WIND       PRES   REMARKS
HARRISBURG PA  PTSUNNY   71  61  70 SE6       30.14R
BALTIMORE      MOSUNNY   68  62  81 CALM      30.15S
ANNAPOLIS      MOSUNNY   68  66  93 SE5       30.15S
ANDREWS AFB    FAIR      70  65  85 S5        30.15S
PHILADELPHIA   PTSUNNY   69  60  73 S3        30.17S
HENDERSON NC   CLOUDY    67  65  92 NE3       30.12F
GREENSBORO     LGT RAIN  67  65  93 NE6       30.13S FOG
ROCKY MOUNT    CLOUDY    72  71  97 NE6       30.10S
$$

VAZ100-291300-
MARINE

STATION/POSITION TIME  TEMP    WIND        PRES    WAVE   SWELL
                       AIR SEA DIR/SP/G            HT/PER HT/PER
                 (UTC) (F)     (DEG/KT/KT) (MB)    (FT/S) (FT/S)
BRANDYWINE LGT   1100   65     160/  5/  6 1021.6R
CAPE MAY NJ      1100   65 68  100/  2/  3 1021.2R
LEWES DE         1100   68 64  190/  2/  3 1021.4R
15NM E FENWICK I 1150   64 63              1021.5R   2/ 8
OCEAN-CITY-INLET 1100   62 58  220/  1/  2 1021.6R
WACHAPREAGUE VA  1100   72 76  130/  3/  6 1020.4R
THOMAS POINT MD  1200   68 67  180/  3/  3 1022.6R
GOOSES REEF MD   1100   68 68  240/  2/  4 1021.9R   0
COVE POINT MD    1100   67     200/  4/  4 1021.6R
SOLOMONS ISLAND  1100   68 66   CALM  /  1   N/A
BISHOPS HEAD MD  1100   69 73  110/  5/  7 1021.0R
PINEY POINT MD   1100          120/  3/  3   N/A
POTOMAC MD       1100   69 70   70/  4/  4 1019.9R   0
CAMBRIDGE MD     1100   66 69  110/  4/  5 1020.3R
LEWISETTA VA     1100   69 65  130/  2/  3 1020.5R
RAPPAHANNOCK LGT 1100          110/  5/  6 1021.2R
STINGRAY PT      1100   70 69   CALM  /  2 1021.0R   0
YORK RVR RNG VA  1100   70     140/  8/  9 1019.9R
YORKTOWN VA      1100   70 69  200/  1/  2 1020.3R
JAMESTOWN VA     1100   71 74   80/  2/  4   N/A     0
DOMINION TERM VA 1100   71      90/  4/  5 1020.4R
KIPTOPEKE VA     1100      69  100/  6/  8   N/A
CHES BAY BRIDGE  1100   69 68   90/  2/  5 1020.4R
CAPE HENRY VA    1100   69     110/  5/  6   N/A
CHESAPEAKE LGHT  1100   70     100/ 10/ 11 1021.1R
WILLOUBY STN VA  1100   69     110/  6/  6 1021.3R
CAPE HENRY BUOY  1142      68                N/A     3/ 8
1ST LANDING BUOY 1100   69 69   90/  6/  8 1020.5R   1/ 5
CAPE CHARLES BUO 1156      68                N/A     3/ 8   2/ 8
OFFSHORE WE BUOY 1151      69                N/A     3/ 8   3/ 8
64NM E OF VA BCH 1150   71 64   90/  4/  6 1020.5F   3/ 8   3/ 8
DUCK PIER NC     1100   70 62  100/  4/  5 1019.4R
44100 DUCK FRF   1154      70                N/A     3/ 8
44056 DUCK FRF   1141      68                N/A     2/ 5
OREGON INLET NC  1100   71 71   80/  4/  5 1019.6S
HATTERAS NC      1100   77 77  110/  7/  9 1018.7R
DIAMOND SHLS NC  1150   78 76  140/ 21/ 25 1018.6F   5/ 8   2/14
CAPE LOOKOUT NC1F1C2F2C3F3C4F4C5F5C6F6C7F7C8M1C9!



USA.gov is the U.S. government's official web portal to all federal, state and local government web resources and services.